Location: ??????
(56.0120°N, 39.1740°E)
Time: 21:36:31
(UTC+00:00)

Cosmos 1464 Rocket - Pass Details

Date: 14 April 2026
Orbit: 951 x 1001 km, 82.9° (Epoch: 16 May)

Event Time Altitude Azimuth Distance (km) Brightness Sun altitude
Exits shadow 22:16:20 36° 145° (SE) 1,485 4.6 -23.4°
Maximum altitude 22:18:32 52° 92° (E) 1,175 4.4 -23.3°
Drops below altitude 10° 22:24:28 10° 18° (NNE) 2,694 7.4 -23.1°
Sets 22:27:01 0° 14° (NNE) 3,642 8.5 -23.0°
